Weather Roundup
Issued by NWS Chicago, IL

Home | Current Version | Previous Version | Graphics & Text | Print | Product List | Glossary On
Versions: 1 2 3 4 5 6 7 8 9 10 11 12 13 14 15 16 17 18 19 20 21 22 23 24 25 26 27 28 29 30 31 32 33 34 35 36 37 38 39 40 41 42 43 44 45 46 47 48 49 50
000
NZUS59 KLOT 231510
HRRLOT

CHICAGO AREA WEATHER ROUNDUP
NATIONAL WEATHER SERVICE CHICAGO/ROMEOVILLE IL
1000 AM CDT TUE SEP 23 2014

NOTE: "FAIR" INDICATES FEW OR NO CLOUDS BELOW 12,000 FEET WITH NO
SIGNIFICANT WEATHER AND/OR OBSTRUCTIONS TO VISIBILITY.

* THESE STATIONS ARE NOT UNDER NWS QUALITY CONTROL. THEY ALSO MAY NOT
  REPORT WEATHER SUCH AS PRECIPITATION OR FOG.

ILZ005-006-012>014-019>023-231600-
NORTHEAST ILLINOIS

CITY           SKY/WX    TMP DP  RH WIND       PRES   REMARKS
OHARE          SUNNY     60  45  57 W9        30.34S
MIDWAY         MOSUNNY   64  48  56 W7        30.35R
AURORA         SUNNY     61  49  64 CALM      30.36R
LANSING*       SUNNY     62  48  59 SW7       30.36S
JOLIET*        SUNNY     61  47  60 SW5       30.36S
WAUKEGAN       SUNNY     63  49  60 SW7       30.33R
DUPAGE AIRPORT SUNNY     62  47  57 SW7       30.35R
WHEELING       SUNNY     64  46  52 S6        30.35S
KANKAKEE*      SUNNY     63  51  64 SW5       30.37R
MORRIS*        SUNNY     62  50  64 SW3       30.35S
LEWIS AIRPORT* SUNNY     62  46  57 SW6       30.35F
NORTHERLY IS     N/A     63  44  50 W9          N/A
$$

WIZ051-052-058>065-066-070>072-231600-
SOUTHEAST WISCONSIN

CITY           SKY/WX    TMP DP  RH WIND       PRES   REMARKS
MILWAUKEE      MOSUNNY   65  49  56 W6        30.32S
KENOSHA*       SUNNY     63  50  62 W9        30.33S
RACINE*        SUNNY     64  49  57 W9        30.34R
BURLINGTON     SUNNY     63  48  57 SW5       30.33S
WAUKESHA       SUNNY     61  52  72 SW3       30.33S
WEST BEND      SUNNY     63  50  63 SW5       30.31S
$$

INZ001>003-010>013-019-020-231600-
NORTHWEST INDIANA

CITY           SKY/WX    TMP DP  RH WIND       PRES   REMARKS
GARY*          NOT AVBL
MICHIGAN CITY* NOT AVBL
RENSSELAER*    NOT AVBL
VALPARAISO     SUNNY     60  47  61 SW8       30.37R
$$

LMZ740>746-231600-
SOUTHERN LAKE MICHIGAN

STATION/POSITION TIME  SKY/WX   TEMP WIND        PRES    VSBY
                                AIR  DIR/SP/G
                 (UTC)          (F)  (DEG/KT/KT) (MB)    (MI)
HARRISON CRIB    NOT AVBL
BURNHAM HARBOR   1500            63  240/  7/ 13   N/A
CALUMET HARBOR   1400            60  210/  7/  9 1026.2R
BURNS HARBOR     NOT AVBL
MICHIGAN CITY    NOT AVBL
$$

ABBREVIATIONS USED IN REMARKS
   TC - TEMPERATURE IN CELSIUS
  WCI - WIND CHILL INDEX
   HX - HEAT INDEX
  VSB - VISIBILITY
$$



USA.gov is the U.S. government's official web portal to all federal, state and local government web resources and services.